Wrangell, AK

6:41 PM AKDT on August 16, 2017 (GMT -0800)
Wrangell

Weather History for PAWG - August, 2013

Change the Weather History Date:

Saturday, August 17, 2013

  Actual Average Record
Temperature  
Mean Temperature 60 °F -  
Max Temperature 62 °F 63 °F 74 °F (1977)
Min Temperature 57 °F 49 °F 38 °F (1969)
Degree Days  
Heating Degree Days 6    
Growing Degree Days 10 (Base 50)    
Moisture  
Dew Point 54 °F    
Average Humidity 82    
Maximum Humidity 88    
Minimum Humidity 68    
Precipitation  
Precipitation 0.52 in - - ()
Sea Level Pressure  
Sea Level Pressure 29.78 in    
Wind  
Wind Speed 8 mph (ESE)    
Max Wind Speed 17 mph    
Max Gust Speed 24 mph    
Visibility 9 miles    
Events      
Averages and records for this station are not official NWS values.
T = Trace of Precipitation, MM = Missing Value Source: NWS Daily Summary

Daily Weather History Graph

Daily Weather History Graph

Search for Another Location

Airport or City:

Trip Planner

Search our weather history database for the weather conditions in past years. The results will help you decide how hot, cold, wet, or windy it might be!

Date:

Astronomy

Aug. 17, 2013 Rise Set
Actual Time 5:23 AM AKDT 8:21 PM AKDT
Civil Twilight 4:39 AM AKDT 9:05 PM AKDT
Nautical Twilight 3:41 AM AKDT 10:02 PM AKDT
Astronomical Twilight 2:18 AM AKDT 11:22 PM AKDT
Moon 6:02 PM AKDT 1:11 AM AKDT
Length of Visible Light 16h 25m
Length of Day
14h 58m
Waxing Gibbous, 85% of the Moon is Illuminated
Aug 17
Waxing Gibbous
Aug 20
Full
Aug 28
Last Quarter
Sep 5
New
Sep 12
First Quarter

Hourly Weather History & Observations

Time (AKDT) Temp. Dew Point Humidity Pressure Visibility Wind Dir Wind Speed Gust Speed Precip Events Conditions
12:16 AM 57.2 °F 53.6 °F 88% 29.84 in 10.0 mi SE 6.9 mph - N/A   Mostly Cloudy
12:36 AM 57.2 °F 53.6 °F 88% 29.84 in 10.0 mi ESE 5.8 mph - N/A   Overcast
12:56 AM 57.2 °F 53.6 °F 88% 29.84 in 10.0 mi ESE 5.8 mph - N/A   Mostly Cloudy
1:16 AM 59.0 °F 53.6 °F 82% 29.84 in 10.0 mi ESE 4.6 mph - N/A   Mostly Cloudy
1:36 AM 59.0 °F 55.4 °F 88% 29.84 in 10.0 mi ESE 6.9 mph - N/A   Overcast
1:56 AM 57.2 °F 53.6 °F 88% 29.83 in 10.0 mi East 9.2 mph - N/A   Mostly Cloudy
2:16 AM 57.2 °F 53.6 °F 88% 29.84 in 10.0 mi ESE 6.9 mph - N/A   Mostly Cloudy
2:36 AM 57.2 °F 53.6 °F 88% 29.83 in 10.0 mi East 6.9 mph - N/A   Mostly Cloudy
2:56 AM 57.2 °F 53.6 °F 88% 29.83 in 10.0 mi East 8.1 mph - N/A   Mostly Cloudy
3:16 AM 57.2 °F 53.6 °F 88% 29.83 in 10.0 mi ESE 8.1 mph - N/A   Mostly Cloudy
3:36 AM 57.2 °F 53.6 °F 88% 29.83 in 10.0 mi ESE 5.8 mph - N/A   Overcast
3:56 AM 59.0 °F 53.6 °F 82% 29.82 in 10.0 mi ESE 8.1 mph - N/A   Overcast
4:16 AM 57.2 °F 53.6 °F 88% 29.82 in 10.0 mi ESE 6.9 mph - N/A   Overcast
4:36 AM 57.2 °F 53.6 °F 88% 29.82 in 10.0 mi ESE 6.9 mph - N/A   Overcast
4:56 AM 57.2 °F 53.6 °F 88% 29.82 in 10.0 mi ESE 4.6 mph - 0.01 in   Overcast
5:16 AM 57.2 °F 53.6 °F 88% 29.82 in 10.0 mi East 4.6 mph - N/A   Overcast
5:36 AM 57.2 °F 53.6 °F 88% 29.81 in 10.0 mi ESE 4.6 mph - 0.01 in   Overcast
5:56 AM 57.2 °F 53.6 °F 88% 29.82 in 10.0 mi East 5.8 mph - 0.01 in   Overcast
6:16 AM 57.2 °F 53.6 °F 88% 29.81 in 10.0 mi NNE 3.5 mph - 0.02 in   Overcast
6:36 AM 57.2 °F 53.6 °F 88% 29.82 in 10.0 mi Calm Calm - 0.04 in   Overcast
6:56 AM 57.2 °F 53.6 °F 88% 29.81 in 7.0 mi East 8.1 mph - 0.05 in   Overcast
7:16 AM 57.2 °F 53.6 °F 88% 29.81 in 7.0 mi East 8.1 mph - 0.02 in   Overcast
7:36 AM 57.2 °F 53.6 °F 88% 29.80 in 7.0 mi East 9.2 mph - 0.04 in   Overcast
7:56 AM 57.2 °F 53.6 °F 88% 29.80 in 10.0 mi East 8.1 mph - 0.04 in   Overcast
8:16 AM 57.2 °F 53.6 °F 88% 29.80 in 10.0 mi East 8.1 mph - 0.03 in   Overcast
8:36 AM 57.2 °F 53.6 °F 88% 29.80 in 10.0 mi East 9.2 mph - 0.04 in   Overcast
8:56 AM 57.2 °F 53.6 °F 88% 29.80 in 10.0 mi East 9.2 mph - 0.06 in   Overcast
9:16 AM 57.2 °F 53.6 °F 88% 29.80 in 10.0 mi East 9.2 mph - 0.03 in   Overcast
9:36 AM 59.0 °F 55.4 °F 88% 29.80 in 10.0 mi East 9.2 mph - 0.05 in   Overcast
9:56 AM 59.0 °F 55.4 °F 88% 29.80 in 10.0 mi East 13.8 mph - 0.05 in   Overcast
10:16 AM 59.0 °F 55.4 °F 88% 29.80 in 10.0 mi East 11.5 mph - N/A   Overcast
10:36 AM 60.8 °F 55.4 °F 82% 29.79 in 10.0 mi East 9.2 mph - N/A   Overcast
10:56 AM 60.8 °F 55.4 °F 82% 29.80 in 10.0 mi East 9.2 mph - N/A   Overcast
11:16 AM 60.8 °F 53.6 °F 77% 29.80 in 10.0 mi SSE 6.9 mph - N/A   Overcast
11:36 AM 60.8 °F 53.6 °F 77% 29.79 in 10.0 mi SE 10.4 mph - N/A   Overcast
11:56 AM 60.8 °F 53.6 °F 77% 29.79 in 10.0 mi ESE 8.1 mph - N/A   Overcast
12:16 PM 60.8 °F 53.6 °F 77% 29.79 in 10.0 mi SE 9.2 mph - N/A   Overcast
12:36 PM 62.6 °F 53.6 °F 72% 29.78 in 10.0 mi SE 11.5 mph - N/A   Overcast
12:56 PM 62.6 °F 53.6 °F 72% 29.78 in 10.0 mi SSE 13.8 mph 19.6 mph N/A   Overcast
1:16 PM 62.6 °F 51.8 °F 68% 29.78 in 10.0 mi SE 12.7 mph 19.6 mph N/A   Overcast
1:36 PM 62.6 °F 51.8 °F 68% 29.77 in 10.0 mi SE 15.0 mph - N/A   Overcast
1:56 PM 62.6 °F 51.8 °F 68% 29.77 in 10.0 mi SSE 13.8 mph 24.2 mph N/A   Mostly Cloudy
2:16 PM 62.6 °F 53.6 °F 72% 29.77 in 10.0 mi SE 15.0 mph 20.7 mph N/A   Mostly Cloudy
2:36 PM 62.6 °F 53.6 °F 72% 29.76 in 10.0 mi SE 12.7 mph - N/A   Mostly Cloudy
2:56 PM 62.6 °F 51.8 °F 68% 29.76 in 10.0 mi SE 13.8 mph 20.7 mph N/A   Mostly Cloudy
3:16 PM 62.6 °F 53.6 °F 72% 29.75 in 10.0 mi SSE 10.4 mph 20.7 mph N/A   Mostly Cloudy
3:36 PM 62.6 °F 51.8 °F 68% 29.75 in 10.0 mi SE 13.8 mph 18.4 mph N/A   Mostly Cloudy
3:56 PM 62.6 °F 51.8 °F 68% 29.75 in 10.0 mi SSE 15.0 mph 18.4 mph N/A   Partly Cloudy
4:16 PM 62.6 °F 53.6 °F 72% 29.74 in 10.0 mi SE 9.2 mph - N/A   Partly Cloudy
4:36 PM 60.8 °F 53.6 °F 77% 29.73 in 10.0 mi East 9.2 mph - N/A   Partly Cloudy
4:56 PM 60.8 °F 53.6 °F 77% 29.73 in 10.0 mi East 5.8 mph - 0.01 in   Overcast
5:16 PM 60.8 °F 53.6 °F 77% 29.72 in 10.0 mi East 9.2 mph - 0.01 in   Overcast
5:36 PM 59.0 °F 53.6 °F 82% 29.71 in 10.0 mi East 10.4 mph - 0.02 in   Overcast
5:56 PM 59.0 °F 53.6 °F 82% 29.72 in 9.0 mi East 6.9 mph - 0.02 in   Overcast
6:16 PM 59.0 °F 53.6 °F 82% 29.72 in 9.0 mi East 4.6 mph - 0.05 in   Overcast
6:36 PM 59.0 °F 53.6 °F 82% 29.71 in 5.0 mi East 8.1 mph - 0.12 in   Overcast
6:56 PM 59.0 °F 53.6 °F 82% 29.70 in 5.0 mi SE 8.1 mph - 0.16 in   Overcast
7:16 PM 57.2 °F 53.6 °F 88% 29.71 in 5.0 mi WSW 4.6 mph - 0.01 in   Overcast
7:36 PM 57.2 °F 53.6 °F 88% 29.71 in 5.0 mi WSW 4.6 mph - 0.06 in   Overcast
7:56 PM 57.2 °F 53.6 °F 88% 29.72 in 5.0 mi SSW 3.5 mph - 0.09 in   Overcast
8:16 PM 57.2 °F 53.6 °F 88% 29.72 in 5.0 mi North 3.5 mph - 0.01 in   Overcast
8:36 PM 57.2 °F 53.6 °F 88% 29.73 in 5.0 mi SE 4.6 mph - 0.01 in   Overcast
8:56 PM 59.0 °F 53.6 °F 82% 29.72 in 10.0 mi ESE 15.0 mph 20.7 mph 0.01 in   Mostly Cloudy
9:16 PM 59.0 °F 53.6 °F 82% 29.72 in 10.0 mi ESE 12.7 mph 20.7 mph N/A   Mostly Cloudy
9:36 PM 60.8 °F 53.6 °F 77% 29.73 in 10.0 mi ESE 11.5 mph 20.7 mph N/A   Mostly Cloudy
9:56 PM 60.8 °F 53.6 °F 77% 29.72 in 10.0 mi ESE 13.8 mph 20.7 mph N/A   Mostly Cloudy
10:16 PM 60.8 °F 53.6 °F 77% 29.73 in 10.0 mi ESE 8.1 mph 17.3 mph N/A   Mostly Cloudy
10:36 PM 59.0 °F 53.6 °F 82% 29.73 in 10.0 mi East 10.4 mph 17.3 mph N/A   Mostly Cloudy
10:56 PM 60.8 °F 51.8 °F 72% 29.72 in 10.0 mi East 16.1 mph 20.7 mph N/A   Mostly Cloudy
11:16 PM 60.8 °F 51.8 °F 72% 29.71 in 10.0 mi ESE 17.3 mph 20.7 mph N/A   Overcast
11:36 PM 60.8 °F 51.8 °F 72% 29.72 in 10.0 mi SE 11.5 mph 17.3 mph N/A   Overcast
11:56 PM 57.2 °F 51.8 °F 82% 29.73 in 8.0 mi South 4.6 mph - 0.01 in   Overcast